Temperature
3 3 3 3 3 3 4 4 4 4 4 4 4 4 4 4 4 5 5 5 5 5 5 5 5 5 5 5 5 5 5 5 5 5 6 6 6 6 6 6 7 7 7
2 2 2 2 2 2 3 3 3 3 3 3 3 3 3 4 4 4 4 4 4 4 4 4 4 4 4 4 4 4 5 5 4 4 4 5 5 5 6 6 6 6 6
1 1 1 1 1 1 2 2 2 3 3 3 3 3 3 3 3 3 3 3 3 3 3 3 4 4 4 4 4 4 4 4 4 4 4 4 4 4 5 5 5 5 6
0 -0 -0 0 0 1 1 1 1 2 2 2 2 2 2 2 2 2 2 2 2 3 3 3 3 3 3 3 3 3 3 3 3 3 3 3 3 3 3 4 4 5 5
-0 -1 -1 -1 -1 -1 -0 0 0 1 1 1 1 1 1 1 1 1 1 2 2 2 2 2 2 2 2 2 2 3 3 3 3 3 3 3 3 3 3 3 3 4 4
-1 -1 -1 -1 -2 -1 -1 -1 -0 0 0 1 0 0 0 1 1 1 1 1 1 1 1 1 1 2 2 2 2 2 2 2 2 2 2 2 2 2 2 2 2 3 3
-2 -2 -2 -3 -2 -2 -2 -2 -1 -1 -1 -0 -0 -0 -0 -0 0 0 0 0 0 0 1 1 1 1 1 1 1 1 1 1 1 1 2 2 2 2 2 1 2 2 2
-3 -3 -3 -3 -3 -3 -3 -3 -2 -2 -2 -1 -1 -1 -1 -1 -1 -1 -1 -1 -0 -0 -0 -0 -0 0 0 0 0 0 0 0 1 1 1 1 1 1 1 1 1 1 1
-3 -3 -4 -4 -4 -4 -4 -3 -3 -3 -3 -2 -2 -2 -2 -2 -1 -1 -1 -1 -1 -1 -1 -1 -1 -0 -0 -0 -0 -0 -0 -0 -0 0 0 0 1 1 1 1 1 0 0
-4 -4 -4 -4 -4 -4 -4 -4 -4 -4 -3 -3 -3 -3 -3 -2 -2 -2 -2 -2 -2 -2 -1 -1 -1 -1 -1 -1 -1 -1 -1 -1 -1 -1 -0 -0 -0 0 0 0 0 0 0
-4 -5 -5 -5 -5 -5 -5 -5 -5 -4 -4 -4 -4 -3 -3 -3 -3 -3 -3 -2 -2 -2 -2 -2 -2 -2 -2 -2 -2 -1 -1 -1 -1 -1 -1 -1 -1 -1 -0 -0 -0 -0 -0
-5 -5 -5 -5 -5 -5 -5 -5 -5 -5 -5 -5 -5 -4 -4 -4 -4 -4 -3 -3 -3 -3 -3 -3 -2 -2 -2 -2 -2 -2 -2 -2 -2 -2 -2 -2 -2 -1 -1 -1 -1 -1 -1
-5 -6 -6 -6 -6 -6 -6 -6 -6 -6 -6 -5 -5 -5 -5 -5 -5 -5 -4 -4 -4 -4 -3 -3 -3 -3 -3 -3 -3 -3 -3 -3 -2 -2 -2 -2 -2 -2 -2 -2 -1 -1 -1
-6 -6 -7 -7 -6 -6 -7 -6 -6 -6 -6 -6 -6 -6 -6 -6 -6 -5 -5 -5 -5 -4 -4 -4 -4 -4 -3 -3 -3 -3 -3 -3 -3 -3 -3 -3 -3 -3 -3 -2 -2 -2 -2
-7 -7 -7 -7 -7 -7 -7 -7 -7 -7 -7 -7 -7 -7 -7 -7 -6 -6 -6 -6 -5 -5 -5 -5 -4 -4 -4 -4 -4 -4 -4 -4 -4 -4 -3 -3 -3 -3 -3 -3 -3 -3 -3
-7 -8 -8 -8 -8 -8 -8 -8 -8 -8 -8 -7 -7 -7 -7 -7 -7 -7 -7 -6 -6 -6 -6 -5 -5 -5 -5 -4 -5 -5 -4 -4 -4 -4 -4 -4 -4 -4 -4 -4 -4 -4 -3
-8 -8 -8 -8 -8 -8 -8 -8 -8 -8 -8 -8 -8 -8 -8 -8 -8 -8 -7 -7 -7 -7 -6 -6 -6 -6 -5 -5 -5 -5 -5 -5 -5 -5 -5 -5 -5 -5 -4 -4 -4 -4 -4
-8 -8 -8 -9 -9 -9 -9 -9 -9 -9 -9 -8 -8 -8 -8 -8 -8 -8 -8 -8 -8 -7 -7 -7 -7 -6 -6 -6 -6 -6 -6 -5 -5 -5 -5 -5 -5 -5 -5 -5 -5 -5 -4
-8 -9 -9 -9 -9 -9 -9 -9 -9 -9 -9 -9 -9 -9 -9 -9 -9 -9 -9 -9 -8 -8 -8 -8 -7 -7 -7 -6 -6 -6 -6 -6 -6 -6 -6 -6 -5 -5 -5 -5 -5 -5 -5
-9 -9 -9 -10 -10 -10 -10 -10 -10 -10 -10 -10 -10 -10 -10 -9 -9 -9 -9 -9 -9 -9 -8 -8 -8 -8 -7 -7 -7 -7 -7 -7 -7 -6 -6 -6 -6 -6 -6 -6 -6 -6 -5
-10 -10 -10 -10 -10 -10 -10 -10 -10 -10 -10 -10 -10 -10 -10 -10 -10 -10 -10 -10 -10 -9 -9 -9 -8 -8 -8 -8 -8 -7 -7 -7 -7 -7 -7 -6 -6 -6 -6 -6 -6 -6 -6
-10 -10 -11 -11 -11 -11 -11 -11 -11 -11 -11 -11 -11 -10 -10 -10 -10 -10 -10 -10 -10 -10 -10 -9 -9 -9 -9 -8 -8 -8 -8 -8 -7 -7 -7 -7 -7 -7 -7 -6 -6 -6 -6
-11 -11 -11 -11 -11 -11 -12 -12 -11 -11 -11 -11 -11 -11 -11 -11 -11 -11 -11 -10 -11 -11 -11 -10 -10 -10 -9 -9 -9 -8 -8 -8 -8 -8 -8 -8 -7 -7 -7 -7 -7 -7 -7
-11 -11 -11 -11 -11 -12 -12 -12 -12 -12 -12 -12 -11 -11 -11 -11 -11 -11 -11 -11 -11 -11 -11 -11 -11 -11 -10 -10 -9 -9 -9 -9 -8 -8 -8 -8 -8 -8 -8 -7 -7 -7 -7
-11 -12 -12 -12 -12 -12 -12 -12 -12 -12 -12 -12 -12 -12 -12 -12 -11 -12 -12 -12 -12 -12 -12 -12 -12 -11 -11 -10 -10 -10 -10 -9 -9 -9 -9 -9 -8 -8 -8 -8 -8 -8 -8
-12 -12 -12 -12 -12 -12 -12 -12 -12 -12 -12 -12 -12 -12 -12 -12 -12 -12 -12 -12 -12 -12 -12 -12 -12 -12 -11 -11 -10 -10 -10 -10 -10 -9 -9 -9 -9 -9 -9 -9 -9 -8 -8
Wind_Speed
4 5 4 4 4 3 3 3 2 2 2 1 1 1 1 1 1 2 2 2 2 1 2 1 1 2 0 1 1 1 1 1 1 1 1 2 1 1 1 0 1 1 1
4 4 4 4 4 4 4 3 2 2 2 1 1 0 1 0 0 1 2 2 1 1 1 1 0 1 0 1 1 1 1 1 1 0 1 1 2 1 1 1 0 0 1
3 4 4 4 4 4 4 3 3 3 2 2 1 1 2 1 1 1 1 1 1 1 1 1 1 1 0 0 0 0 1 1 2 1 0 1 2 1 1 1 1 1 1
4 4 5 5 4 4 4 4 3 3 3 2 2 1 1 1 2 1 1 2 2 1 1 1 1 1 0 0 1 0 1 1 1 1 1 1 1 1 1 1 1 2 2
4 4 5 5 5 5 4 4 4 4 4 3 2 2 1 1 1 1 2 2 2 1 1 1 1 1 1 1 1 1 1 1 1 1 1 2 2 1 2 2 2 2 2
4 5 5 5 6 6 5 5 5 5 5 4 3 2 2 2 2 2 2 2 2 2 2 2 1 1 1 1 2 2 2 2 2 2 2 2 2 2 2 2 2 2 2
4 4 5 6 6 7 6 6 6 6 5 5 4 3 3 2 2 2 2 2 2 2 2 2 2 2 2 3 2 2 2 2 3 3 3 3 3 2 2 2 2 2 2
4 4 4 5 5 6 7 7 6 6 6 5 4 3 3 2 2 2 2 3 3 3 3 3 3 4 3 3 2 3 3 3 3 4 3 3 3 3 3 3 2 2 3
3 4 4 4 5 5 6 7 6 6 7 7 5 4 3 3 3 3 3 3 3 4 3 4 4 4 4 3 3 3 3 3 4 4 4 4 3 3 3 3 4 4 3
4 4 4 4 4 4 5 6 6 6 6 7 6 5 4 4 3 3 4 4 4 5 4 3 4 4 4 4 3 3 4 4 4 4 4 4 3 3 3 3 4 4 4
3 3 4 4 3 4 5 5 6 6 6 7 7 6 5 5 4 4 4 4 5 5 4 4 4 4 5 4 4 4 4 5 5 5 5 6 5 4 4 3 3 4 4
2 3 3 3 4 4 5 5 6 6 6 7 7 6 6 6 6 5 5 5 5 5 5 5 5 5 5 5 5 6 6 6 6 6 6 6 5 5 5 4 5 4 4
2 2 3 3 4 4 5 5 5 6 6 6 6 6 6 6 6 7 6 6 6 6 5 5 5 5 5 6 6 6 6 7 7 7 7 7 6 6 5 5 5 5 4
2 3 3 3 4 4 4 5 6 6 6 7 6 6 6 7 7 7 7 7 7 6 6 6 5 5 5 6 6 6 6 6 6 6 7 7 7 7 6 6 6 5 4
3 3 3 3 4 4 5 5 6 6 7 7 7 6 6 6 7 7 7 7 7 7 6 6 6 5 5 6 6 6 7 6 6 7 7 7 8 9 8 7 6 6 5
3 3 3 4 4 4 5 6 6 6 7 7 7 7 7 7 7 7 7 7 7 7 7 6 6 6 6 9 11 8 6 6 7 7 7 7 8 9 11 11 10 8 7
3 3 4 4 4 5 5 5 6 6 6 7 7 7 7 7 7 8 7 7 7 7 7 7 6 7 7 10 10 11 6 6 6 6 6 6 7 8 6 8 10 10 12
3 3 4 4 4 4 4 5 5 6 6 7 7 7 7 7 8 7 7 7 7 7 7 7 7 7 8 11 11 11 7 6 6 6 6 6 6 7 7 6 7 7 7
2 3 3 3 4 4 5 5 5 6 6 7 7 7 7 8 8 8 8 7 7 7 7 7 7 7 8 11 11 10 5 5 6 6 6 6 6 10 10 7 7 7 7
2 3 3 4 4 4 4 5 6 6 7 7 8 7 7 7 7 8 8 7 7 7 8 8 7 7 7 10 11 10 5 5 5 5 6 8 9 11 11 8 7 8 6
3 3 3 3 4 4 4 4 5 6 7 7 8 8 7 7 7 7 7 6 7 7 7 8 7 6 8 10 11 10 5 5 5 5 4 5 9 11 11 10 7 9 7
3 3 3 4 4 4 4 5 6 6 6 7 7 7 7 7 7 6 6 6 6 7 7 7 7 6 7 9 10 10 9 7 5 5 4 5 8 10 10 8 8 9 8
3 3 3 4 4 4 4 5 6 6 6 7 7 7 8 7 7 6 6 6 5 5 6 6 6 6 6 7 11 11 10 9 5 4 6 7 8 8 7 8 8 6 4
3 3 3 4 5 4 5 5 6 6 6 7 7 7 7 7 6 6 5 5 5 5 6 6 6 6 6 6 5 5 6 7 6 4 5 7 7 6 6 5 5 4 4
3 3 3 4 5 5 5 6 5 5 6 6 7 7 7 7 6 6 5 6 5 5 6 5 6 6 6 8 10 7 5 4 4 3 2 2 2 2 2 2 2 2 3
3 3 4 5 5 5 6 6 5 5 5 6 6 6 6 6 6 6 6 9 9 11 11 10 9 8 10 12 11 11 10 9 7 3 2 2 2 2 2 2 2 2 2
Wind_Direction
67 74 62 53 53 51 46 45 55 51 49 35 32 35 22 359 22 24 41 35 34 56 57 27 6 4 25 345 7 5 3 339 344 340 327 315 280 232 271 85 108 119 121
57 56 64 52 41 37 30 28 28 31 27 7 345 308 278 284 303 16 30 23 5 6 33 58 358 351 8 15 45 29 350 303 314 317 308 314 314 323 291 309 274 255 101
65 54 47 51 36 27 23 20 18 13 1 11 21 24 15 6 17 9 347 339 339 353 3 337 333 327 285 192 89 123 356 289 291 306 192 204 239 300 297 307 324 332 344
55 45 38 32 27 17 16 16 13 18 7 15 26 24 357 320 314 301 299 312 314 307 287 280 308 313 279 214 258 281 266 220 254 285 295 253 217 208 285 295 309 335 330
56 45 35 25 20 19 20 15 13 12 9 6 6 356 343 323 327 333 328 336 323 315 306 280 268 298 290 246 273 287 269 240 236 243 279 278 280 239 224 260 285 303 308
54 41 28 26 23 21 20 15 10 8 9 4 358 357 344 338 337 332 323 328 321 310 310 289 280 274 278 250 253 259 265 263 255 247 245 244 244 238 233 244 264 269 277
50 38 27 21 18 14 12 10 7 1 2 0 352 346 337 324 303 296 293 308 306 301 281 292 275 268 266 266 262 249 253 256 248 240 245 251 249 249 241 234 249 269 277
43 35 27 21 16 9 6 3 2 356 353 351 342 342 342 331 312 310 299 285 281 272 290 282 272 270 266 262 256 248 250 248 248 250 248 251 254 247 236 224 220 258 266
40 30 24 21 16 5 360 357 358 355 351 347 340 342 342 331 317 314 305 290 290 290 288 280 270 270 264 256 250 246 249 250 245 246 249 250 251 248 246 232 214 213 236
31 22 16 13 11 1 354 356 357 354 349 347 341 340 337 329 317 311 306 300 292 286 278 275 267 263 264 257 244 245 247 246 249 246 246 251 249 245 243 238 233 224 224
19 9 2 360 1 0 359 357 356 352 349 347 343 342 337 332 325 313 307 303 294 281 269 265 263 258 256 256 247 242 243 243 248 248 244 248 246 241 241 234 231 232 225
12 3 357 357 357 357 356 355 352 348 345 342 340 336 332 330 328 324 318 313 303 291 273 267 262 258 255 252 249 246 244 243 243 244 242 244 244 240 239 229 230 229 226
354 357 356 354 350 350 348 345 343 341 340 338 335 333 332 333 331 327 321 319 311 305 295 280 267 264 258 252 250 247 246 244 244 239 237 239 236 236 239 232 230 232 234
341 347 348 339 339 342 342 339 339 338 337 336 331 329 330 329 325 323 321 318 313 306 299 288 278 272 267 260 255 251 252 250 247 244 243 239 234 234 234 236 229 228 229
334 334 330 326 334 342 343 341 337 337 335 329 324 323 323 325 325 323 321 319 315 310 303 296 285 276 268 262 256 252 251 250 251 250 249 245 241 240 236 237 229 221 223
308 313 322 331 334 337 336 336 332 331 331 325 323 325 327 327 325 322 320 320 318 314 308 299 294 283 276 273 270 268 255 247 246 250 251 249 247 247 246 246 243 234 227
302 312 322 324 328 332 336 332 327 328 328 326 325 328 329 327 324 323 324 320 316 311 307 304 298 292 286 286 282 275 269 252 248 246 248 255 251 244 241 248 250 248 246
320 323 325 327 329 333 336 328 326 325 327 326 325 329 329 324 321 322 320 317 314 312 307 304 299 296 293 292 287 283 274 258 250 245 241 247 250 242 238 239 242 244 248
319 319 323 321 323 327 327 327 327 329 329 327 325 325 323 320 320 320 317 315 314 311 307 303 300 297 298 298 291 287 275 262 259 255 247 242 242 248 245 239 237 244 250
345 335 330 327 324 323 330 330 325 327 324 321 318 316 314 313 313 312 310 311 310 306 309 306 300 294 294 297 294 288 275 266 265 261 254 250 249 251 247 237 233 240 246
330 328 322 319 317 321 328 320 320 319 317 318 318 317 315 311 307 307 309 311 312 314 313 310 307 301 301 301 296 288 274 263 263 263 259 254 256 254 252 246 238 243 244
321 322 318 314 314 318 320 316 313 312 318 319 318 317 316 313 313 312 311 312 314 316 315 314 314 311 309 310 306 298 284 275 261 261 260 256 259 258 257 256 254 252 250
303 308 305 307 311 316 319 309 307 314 317 319 318 316 316 315 314 311 312 314 315 317 317 318 317 318 317 315 314 307 300 292 278 269 268 266 265 263 261 262 259 255 244
294 298 303 306 309 313 313 302 306 311 313 314 314 314 316 317 318 315 313 313 314 313 315 317 317 316 318 319 319 313 306 298 292 285 281 280 277 272 269 263 254 246 234
300 302 295 295 299 307 307 308 311 311 311 310 310 314 316 314 316 315 308 306 295 299 304 305 305 309 311 312 315 316 309 304 288 285 283 285 282 268 260 250 240 234 233
295 297 296 297 300 304 303 304 306 306 307 311 313 314 314 313 314 313 313 313 310 311 307 306 308 305 310 317 318 315 313 317 311 302 296 288 285 276 270 260 254 246 240
Height
1505 1504 1504 1504 1504 1505 1505 1505 1506 1506 1506 1507 1507 1508 1509 1510 1510 1511 1512 1512 1513 1513 1514 1515 1515 1516 1516 1517 1517 1518 1519 1520 1521 1522 1522 1523 1524 1525 1525 1526 1527 1528 1530
1503 1503 1503 1503 1503 1503 1503 1503 1503 1504 1504 1504 1505 1505 1506 1506 1507 1508 1509 1509 1510 1510 1510 1511 1512 1512 1513 1513 1514 1515 1515 1516 1518 1519 1520 1520 1522 1521 1522 1523 1524 1525 1527
1503 1503 1502 1502 1502 1501 1501 1501 1501 1501 1502 1502 1502 1503 1503 1504 1504 1505 1505 1506 1507 1507 1507 1508 1508 1509 1509 1510 1510 1512 1512 1513 1515 1516 1518 1518 1518 1518 1519 1520 1521 1522 1523
1502 1502 1501 1501 1501 1500 1500 1500 1499 1499 1499 1499 1499 1500 1500 1500 1500 1501 1502 1502 1503 1504 1504 1505 1505 1505 1506 1506 1507 1508 1509 1510 1511 1513 1514 1516 1516 1517 1515 1516 1517 1518 1519
1502 1502 1501 1501 1500 1499 1499 1498 1497 1497 1497 1497 1497 1497 1497 1498 1498 1498 1498 1499 1500 1500 1501 1501 1501 1502 1502 1503 1504 1504 1505 1506 1507 1509 1510 1512 1513 1513 1513 1513 1513 1514 1515
1502 1501 1501 1500 1499 1498 1497 1496 1495 1495 1494 1494 1494 1494 1495 1495 1495 1495 1495 1495 1496 1496 1497 1497 1498 1498 1498 1499 1500 1500 1501 1502 1503 1505 1506 1508 1509 1509 1510 1510 1510 1511 1511
1501 1501 1500 1499 1498 1496 1495 1494 1493 1493 1492 1492 1492 1492 1492 1492 1491 1491 1491 1492 1492 1492 1493 1493 1494 1494 1494 1495 1496 1496 1497 1498 1499 1500 1502 1503 1504 1506 1506 1507 1507 1507 1507
1501 1501 1500 1498 1497 1495 1494 1493 1492 1491 1490 1489 1489 1489 1489 1488 1488 1488 1488 1488 1488 1488 1489 1489 1489 1490 1490 1491 1491 1492 1493 1494 1495 1496 1497 1498 1499 1501 1502 1503 1504 1504 1504
1501 1500 1499 1498 1496 1495 1493 1492 1490 1489 1488 1487 1487 1486 1486 1485 1485 1485 1485 1484 1484 1484 1484 1485 1485 1486 1486 1486 1487 1487 1488 1489 1490 1491 1492 1493 1494 1496 1497 1498 1500 1501 1500
1500 1499 1498 1497 1496 1494 1492 1491 1489 1487 1486 1485 1484 1483 1483 1482 1481 1481 1481 1480 1480 1480 1480 1480 1481 1481 1481 1482 1482 1483 1484 1485 1486 1487 1487 1488 1489 1490 1492 1493 1494 1495 1496
1500 1499 1497 1496 1494 1493 1491 1489 1487 1485 1483 1482 1481 1480 1479 1478 1478 1477 1476 1476 1476 1475 1475 1476 1476 1476 1476 1477 1478 1478 1479 1480 1481 1481 1482 1483 1484 1485 1486 1487 1488 1490 1491
1498 1497 1496 1494 1493 1491 1489 1487 1485 1483 1481 1479 1478 1477 1476 1475 1474 1473 1473 1472 1472 1471 1471 1471 1471 1471 1472 1472 1473 1473 1474 1475 1475 1476 1477 1478 1479 1480 1481 1482 1483 1484 1485
1497 1495 1494 1493 1491 1489 1487 1485 1483 1481 1479 1477 1476 1474 1473 1471 1470 1469 1469 1468 1467 1466 1466 1466 1466 1466 1466 1467 1467 1468 1468 1469 1470 1471 1471 1472 1473 1474 1475 1476 1477 1479 1480
1495 1494 1492 1491 1489 1487 1485 1483 1481 1479 1477 1475 1473 1471 1470 1468 1467 1466 1465 1464 1463 1462 1461 1461 1461 1461 1461 1462 1462 1462 1463 1463 1464 1465 1466 1466 1467 1468 1470 1471 1472 1473 1474
1493 1492 1490 1489 1487 1485 1483 1481 1479 1477 1475 1473 1471 1469 1467 1466 1464 1462 1461 1460 1459 1458 1457 1457 1457 1457 1457 1457 1457 1457 1457 1458 1458 1459 1460 1461 1461 1463 1464 1466 1467 1468 1469
1491 1490 1488 1487 1485 1483 1481 1479 1477 1475 1473 1471 1469 1467 1465 1463 1461 1459 1457 1456 1455 1454 1453 1452 1452 1452 1452 1452 1452 1452 1452 1452 1453 1453 1454 1455 1456 1457 1459 1460 1461 1463 1463
1489 1488 1486 1485 1483 1481 1479 1476 1474 1472 1470 1468 1466 1464 1462 1460 1458 1456 1454 1452 1451 1450 1449 1448 1447 1447 1447 1447 1447 1447 1447 1447 1447 1448 1449 1449 1450 1452 1453 1454 1455 1456 1457
1487 1486 1484 1482 1480 1478 1476 1474 1472 1470 1467 1465 1463 1461 1459 1457 1455 1453 1451 1449 1448 1446 1445 1444 1443 1442 1442 1442 1442 1442 1442 1442 1442 1443 1443 1444 1445 1446 1447 1448 1449 1450 1451
1485 1484 1482 1480 1478 1476 1474 1471 1469 1467 1464 1462 1460 1458 1456 1454 1452 1450 1448 1446 1444 1442 1441 1440 1439 1438 1437 1437 1437 1437 1437 1436 1437 1437 1438 1438 1439 1440 1442 1442 1443 1444 1445
1483 1481 1479 1477 1475 1473 1471 1469 1466 1464 1462 1460 1458 1456 1454 1451 1449 1447 1445 1443 1441 1439 1437 1436 1435 1434 1433 1433 1433 1433 1432 1431 1431 1432 1432 1433 1433 1434 1436 1437 1437 1438 1439
1480 1479 1477 1474 1472 1470 1468 1466 1463 1461 1459 1457 1455 1453 1451 1449 1447 1444 1442 1440 1438 1436 1434 1432 1431 1430 1429 1428 1428 1428 1428 1427 1427 1426 1426 1427 1428 1429 1430 1431 1432 1432 1434
1477 1476 1474 1471 1470 1468 1465 1463 1461 1459 1457 1455 1452 1450 1448 1446 1444 1442 1439 1437 1435 1432 1430 1429 1427 1426 1425 1424 1423 1423 1423 1423 1422 1422 1422 1422 1423 1424 1425 1425 1426 1427 1428
1474 1473 1471 1469 1467 1465 1463 1460 1458 1456 1454 1452 1449 1447 1445 1443 1441 1439 1436 1434 1432 1430 1428 1426 1424 1422 1421 1420 1420 1419 1419 1418 1418 1417 1418 1418 1418 1419 1419 1420 1421 1422 1423
1471 1470 1468 1465 1464 1462 1460 1458 1456 1454 1451 1449 1446 1444 1442 1440 1438 1436 1434 1431 1429 1427 1425 1423 1421 1419 1418 1417 1416 1415 1415 1414 1413 1413 1413 1413 1413 1414 1414 1415 1415 1416 1418
1469 1467 1465 1463 1461 1459 1457 1455 1453 1451 1449 1446 1444 1441 1439 1437 1435 1433 1431 1428 1427 1425 1423 1421 1419 1417 1415 1414 1413 1412 1411 1410 1409 1409 1409 1408 1408 1408 1408 1409 1410 1411 1412
1466 1464 1462 1460 1458 1456 1454 1452 1450 1448 1445 1443 1441 1438 1436 1434 1431 1429 1427 1425 1424 1422 1420 1419 1417 1414 1413 1411 1410 1409 1407 1406 1406 1405 1404 1404 1404 1404 1404 1405 1405 1406 1407